User: anonymous   Login
Location: Unspecified
(0.0000°N, 0.0000°E)
Time: 20:45:56
(UTC+00:00)
Language:

Landsat 7 - Orbit

View from above orbital plane
View from above orbital plane
View from above satellite
View from above satellite

Ground track
Ground track

The orbit is defined by the following mean orbital elements,

1 25682U          26150.49009647 +.00000000 +00000-0 +11291-3 0 00006
2 25682  97.8579 154.9372 0001702  99.4526  55.7253 14.63899934    09
Epoch (UTC): 30 May 2026 11:45:44
Eccentricity: 0.0001702
inclination: 97.8579°
perigee height: 679 km
apogee height: 682 km
right ascension of ascending node: 154.9372°
argument of perigee: 99.4526°
revolutions per day: 14.63899934
mean anomaly at epoch: 55.7253°

The dashed part of the orbit path shows where the satellite is in the earth's shadow,  

DLR